This is the latest recevied weather packets stored in our database for station/object K3RUP-1. If no packets are shown the sender has not sent any weather packets the latest 10 day(s).
| Time | Temp. | Humidity | Pressure | Rain* | Wind** | Luminosity | Snow |
|---|---|---|---|---|---|---|---|
| 1788629306 | 26.11° C | 68% | 1011.2 hPa | 0 mm | - | 246 W/m² | - |
| 1788629004 | 26.11° C | 68% | 1011.2 hPa | 0 mm | - | 246 W/m² | - |
| 1788628701 | 26.11° C | 70% | 1011.2 hPa | 0 mm | - | 246 W/m² | - |
| 1788628397 | 26.67° C | 67% | 1011.1 hPa | 0 mm | - | 223 W/m² | - |
| 1788628094 | 26.11° C | 67% | 1011.4 hPa | 0 mm | - | 223 W/m² | - |
| 1788627803 | 26.11° C | 68% | 1011.3 hPa | 0 mm | - | 239 W/m² | - |
| 1788627488 | 26.11° C | 68% | 1011.2 hPa | 0 mm | - | 303 W/m² | - |
| 1788627184 | 26.67° C | 69% | 1011 hPa | 0 mm | - | 357 W/m² | - |
| 1788626883 | 26.67° C | 66% | 1011.3 hPa | 0 mm | - | 290 W/m² | - |
| 1788626579 | 26.67° C | 67% | 1011.2 hPa | 0 mm | - | 309 W/m² | - |
| 1788626274 | 26.11° C | 72% | 1011.4 hPa | 0 mm | - | 296 W/m² | - |
| 1788625974 | 26.67° C | 71% | 1011.4 hPa | 0 mm | - | 266 W/m² | - |
| 1788625666 | 26.11° C | 72% | 1011.5 hPa | 0 mm | - | 225 W/m² | - |
| 1788625366 | 25.56° C | 72% | 1011.6 hPa | 0 mm | - | 353 W/m² | - |
| 1788625060 | 26.11° C | 70% | 1011.8 hPa | 0 mm | - | 219 W/m² | - |
| 1788624759 | 26.11° C | 74% | 1012 hPa | 0 mm | - | 258 W/m² | - |
| 1788624458 | 25.56° C | 73% | 1011.6 hPa | 0 mm | - | 232 W/m² | - |
| 1788624158 | 25.56° C | 76% | 1011.7 hPa | 0 mm | - | 187 W/m² | - |
| 1788623853 | 25.56° C | 76% | 1011.6 hPa | 0 mm | - | 160 W/m² | - |
| 1788623551 | 25° C | 73% | 1011.8 hPa | 0 mm | - | 124 W/m² | - |
| 1788623245 | 25.56° C | 76% | 1011.8 hPa | 0 mm | - | 84 W/m² | - |
| 1788622941 | 26.11° C | 73% | 1012 hPa | 0 mm | - | 130 W/m² | - |
| 1788622637 | 26.11° C | 73% | 1012 hPa | 0 mm | - | 206 W/m² | - |
| 1788622333 | 25.56° C | 74% | 1011.8 hPa | 0 mm | - | 179 W/m² | - |
| 1788622027 | 25.56° C | 72% | 1012 hPa | 0 mm | - | 197 W/m² | - |
* Rain latest hour (hover to see other rain measurements)
** Current wind speed in m/s (hover to see current wind gust speed)